Weather in Alatorka

Russia / Republic of Bashkortostan     54°46′35″N   56°22′00″E
temp.,
°C
wind,
m/s
gust,
m/s
humid.,
%
clouds,
%
prec.,
mm/h
press.,
hPa
HPBL,
m
28 february, sun
sun2823:00−10se51087100 0.3 1003304
02:00−10ese4795100 0.7 1001266
05:00−9ese4795100 1.9 1000225
08:00−8ese3696100 1.0 1000206
11:00−6e3496100 1.8 1000248
14:00−3e2293100 0.6 1000292
17:00−2nnw2396100 1.1 1002254
20:00−6wnw359797 0.4 1004123
1 march, mon
mon123:00−8nnw249793 0.6 100787
02:00−10nw249692 0.3 100997
05:00−12wnw359696 0.7 1011156
08:00−14wnw249696 0.3 1013129
11:00−13wnw349491 0.4 1015323
14:00−11wnw3491100 0.2 1015489
17:00−12wnw3592100 0.4 1017448
20:00−15w3496100 0.2 1018126
2 march, tue
tue223:00−18w239891 0.3 101951
02:00−19wsw229996 0.1 101829
05:00−21ssw339998 0.1 101873
08:00−22s379897 0.0 1017144
11:00−18s6119393 0.1 1015348
14:00−15s7129093 0.0 1011442
17:00−13s8139197 0.0 1010500
20:00−14s81493100 0.7 1008580
3 march, wed
wed323:00−13s81492100 1.4 1007600
02:00−12s71394100 0.6 1005521
05:00−10s71394100 1.8 1003510
08:00−7s61394100 1.3 1000450
11:00−4s5995100 2.1 999540
14:00−1ssw5795100 0.6 998616
17:00−1sw4697100 1.3 998431
20:00−5w4894100 0.4 998281
4 march, thu
thu423:00−6nw61195100 0.8 1000505
02:00−8nw51094100 0.8 1001463
05:00−9wnw3995100 0.9 1003280
08:00−9wnw41095100 0.3 1005391
11:00−11wnw5995100 0.3 1007348
14:00−8wnw4792100 0.1 1008525
17:00−8wnw4792100 0.1 1010502
20:00−13w339686 0.0 101240